TimeEDT,TemperatureF,Dew PointF,Humidity,Sea Level PressureIn,VisibilityMPH,Wind Direction,Wind SpeedMPH,Gust SpeedMPH,PrecipitationIn,Events,Conditions,WindDirDegrees,DateUTC
12:50 AM,39.2,37.4,93,30.28,0.2,Calm,Calm,-,N/A,Fog,Fog,0,2012-09-12 04:50:00
12:52 AM,39.0,37.9,96,30.29,0.2,Calm,Calm,-,N/A,Fog,Fog,0,2012-09-12 04:52:00
1:27 AM,39.2,37.4,93,30.28,0.5,Calm,Calm,-,N/A,Fog,Fog,0,2012-09-12 05:27:00
1:52 AM,39.0,37.9,96,30.31,0.2,Calm,Calm,-,N/A,Fog,Fog,0,2012-09-12 05:52:00
2:52 AM,39.9,39.0,97,30.32,0.2,Calm,Calm,-,N/A,Fog,Fog,0,2012-09-12 06:52:00
3:52 AM,39.0,37.9,96,30.32,0.2,Calm,Calm,-,N/A,Fog,Fog,0,2012-09-12 07:52:00
4:11 AM,39.2,37.4,93,30.31,0.2,Calm,Calm,-,N/A,Fog,Fog,0,2012-09-12 08:11:00
4:24 AM,39.2,37.4,93,30.32,0.8,Calm,Calm,-,N/A,,Mist,0,2012-09-12 08:24:00
4:30 AM,39.2,37.4,93,30.32,1.5,Calm,Calm,-,N/A,,Overcast,0,2012-09-12 08:30:00
4:34 AM,39.2,37.4,93,30.32,0.8,Calm,Calm,-,N/A,,Mist,0,2012-09-12 08:34:00
4:41 AM,39.2,37.4,93,30.32,1.0,Calm,Calm,-,N/A,,Mist,0,2012-09-12 08:41:00
4:52 AM,39.0,37.9,96,30.34,0.5,Calm,Calm,-,N/A,Fog,Fog,0,2012-09-12 08:52:00
4:59 AM,39.2,37.4,93,30.32,0.2,Calm,Calm,-,N/A,Fog,Fog,0,2012-09-12 08:59:00
5:52 AM,39.0,37.9,96,30.35,0.2,Calm,Calm,-,N/A,Fog,Fog,0,2012-09-12 09:52:00
6:52 AM,37.9,37.9,100,30.38,0.2,Calm,Calm,-,N/A,Fog,Fog,0,2012-09-12 10:52:00
7:52 AM,42.1,41.0,96,30.38,0.5,Calm,Calm,-,N/A,Fog,Fog,0,2012-09-12 11:52:00
8:07 AM,42.8,42.8,100,30.35,1.5,Calm,Calm,-,N/A,,Overcast,0,2012-09-12 12:07:00
8:15 AM,44.6,42.8,93,30.36,2.0,Calm,Calm,-,N/A,,Overcast,0,2012-09-12 12:15:00
8:20 AM,44.6,42.8,93,30.36,1.2,Calm,Calm,-,N/A,,Overcast,0,2012-09-12 12:20:00
8:31 AM,44.6,44.6,100,30.36,2.0,Calm,Calm,-,N/A,,Overcast,0,2012-09-12 12:31:00
8:38 AM,46.4,44.6,93,30.36,10.0,Calm,Calm,-,N/A,,Mostly Cloudy,0,2012-09-12 12:38:00
8:52 AM,46.9,46.0,97,30.38,10.0,Calm,Calm,-,N/A,,Partly Cloudy,0,2012-09-12 12:52:00
9:52 AM,57.9,46.9,67,30.37,10.0,Calm,Calm,-,N/A,,Clear,0,2012-09-12 13:52:00
10:52 AM,64.9,46.9,52,30.36,10.0,Calm,Calm,-,N/A,,Clear,0,2012-09-12 14:52:00
11:52 AM,70.0,51.1,51,30.34,10.0,Calm,Calm,-,N/A,,Clear,0,2012-09-12 15:52:00
12:52 PM,75.0,53.1,46,30.33,10.0,Variable,3.5,-,N/A,,Clear,0,2012-09-12 16:52:00
1:52 PM,77.0,52.0,42,30.31,10.0,Variable,3.5,-,N/A,,Clear,0,2012-09-12 17:52:00
2:52 PM,77.0,46.9,34,30.30,10.0,SSW,3.5,-,N/A,,Clear,210,2012-09-12 18:52:00
3:52 PM,78.1,46.9,33,30.29,10.0,Variable,3.5,-,N/A,,Clear,0,2012-09-12 19:52:00
4:52 PM,79.0,44.1,29,30.28,10.0,Calm,Calm,-,N/A,,Clear,0,2012-09-12 20:52:00
6:52 PM,64.0,57.9,80,30.30,10.0,Calm,Calm,-,N/A,,Clear,0,2012-09-12 22:52:00
8:52 PM,53.1,51.1,93,30.34,10.0,Calm,Calm,-,N/A,,Clear,0,2012-09-13 00:52:00
9:52 PM,50.0,48.9,96,30.35,10.0,Calm,Calm,-,N/A,,Clear,0,2012-09-13 01:52:00
10:44 PM,48.2,46.4,93,30.33,5.0,Calm,Calm,-,N/A,,Partly Cloudy,0,2012-09-13 02:44:00
10:52 PM,48.0,46.9,96,30.34,3.0,Calm,Calm,-,N/A,,Scattered Clouds,0,2012-09-13 02:52:00
11:04 PM,48.2,46.4,93,30.33,7.0,Calm,Calm,-,N/A,,Mostly Cloudy,0,2012-09-13 03:04:00
11:14 PM,48.2,46.4,93,30.33,10.0,Calm,Calm,-,N/A,,Scattered Clouds,0,2012-09-13 03:14:00
11:52 PM,46.9,44.1,90,30.34,9.0,Calm,Calm,-,N/A,,Mostly Cloudy,0,2012-09-13 03:52:00